Wind_Speed
16 17 19 20 18 18 18 16 12 6 5 8 11 18 25 26 26 22 26 24 25 27 29 32 33 33 33 34 36 36 36 34 34 33 25 27 60 63
16 17 19 19 20 20 20 19 18 17 8 15 21 28 33 31 30 28 32 28 29 29 30 31 33 32 34 36 36 36 36 35 35 35 31 33 21 65
16 18 21 20 21 22 21 20 20 20 18 27 24 25 26 31 33 33 33 35 36 30 32 32 32 35 36 36 37 37 38 38 37 38 32 34 29 11
20 19 22 18 21 22 24 25 23 25 23 25 26 23 26 27 30 33 33 31 30 32 32 34 35 36 37 37 38 38 37 37 39 37 39 36 37 41
21 21 22 22 25 26 27 25 24 23 24 26 30 22 25 24 26 29 31 34 35 31 31 32 33 34 34 35 34 34 36 38 40 37 38 36 36 34
22 24 25 25 26 27 25 23 24 24 26 27 30 23 22 23 23 25 27 26 33 35 32 31 32 34 36 35 34 36 37 39 40 40 40 38 34 31
26 24 25 25 23 25 25 29 30 28 26 25 26 24 22 23 23 24 26 25 29 30 33 36 33 30 24 24 27 28 28 28 28 33 38 39 37 36
27 27 24 24 25 25 27 27 27 25 19 19 23 22 29 27 28 26 26 22 11 25 28 33 27 29 33 33 33 33 33 33 35 35 36 33 36 39
25 26 23 23 23 25 25 26 26 27 28 31 31 26 31 28 31 29 28 28 30 33 26 30 30 33 33 34 32 33 33 35 37 38 40 40 39 40
22 23 24 24 23 23 24 27 28 27 30 31 32 36 34 32 35 33 35 35 35 34 28 24 31 34 33 35 34 35 37 39 41 42 43 43 44 38
22 23 22 23 24 22 25 26 27 32 33 31 31 33 34 35 36 32 31 26 22 31 28 27 34 31 30 32 34 36 34 31 33 37 39 39 39 41
22 22 21 22 22 25 26 28 26 28 24 26 30 31 28 32 33 34 34 24 23 17 27 27 30 24 11 21 27 15 18 26 26 22 18 31 38 40
22 20 21 20 23 25 28 27 22 27 28 28 23 27 27 28 28 31 32 32 26 24 26 18 13 18 22 22 27 35 30 31 22 26 21 17 16 22
20 20 22 25 23 22 23 24 29 30 21 21 21 21 22 21 23 25 30 33 34 37 36 28 18 23 23 21 17 24 23 23 25 25 24 22 20 21
22 23 23 19 18 19 23 25 24 18 20 19 19 21 21 25 30 28 27 28 34 36 35 37 32 29 29 24 18 21 21 21 20 27 17 22 27 28
19 19 12 15 17 18 19 17 17 17 18 19 19 22 25 23 23 22 23 21 24 27 33 36 33 32 29 29 27 26 24 17 17 22 25 27 28 26
20 10 16 18 17 16 16 17 17 18 19 19 19 20 20 20 21 20 21 21 18 19 22 24 27 31 32 30 23 22 24 21 21 23 20 22 24 26
19 13 17 18 18 16 15 17 18 18 18 18 19 18 19 19 20 20 18 17 16 16 18 17 21 20 19 21 28 23 19 19 19 21 20 19 22 23
14 15 16 17 18 17 17 17 19 19 20 20 19 20 20 19 20 18 18 16 15 16 16 16 16 13 7 8 13 20 21 22 24 20 17 17 20 24
15 15 17 18 19 19 19 19 20 20 20 20 19 19 20 18 18 18 17 17 17 17 15 17 15 14 9 8 6 17 15 19 16 18 21 24 25 27
18 19 19 20 20 21 21 21 22 22 20 21 22 20 20 18 18 19 18 20 21 16 13 14 18 17 21 22 11 15 21 21 22 22 19 20 20 19
21 22 22 22 22 23 24 24 25 24 24 21 21 21 22 20 20 20 19 18 18 18 18 19 20 17 17 14 10 18 22 22 23 24 26 28 22 5
21 22 24 24 24 24 24 25 25 26 26 26 24 24 22 21 21 21 21 21 21 20 19 19 17 17 17 18 20 17 18 21 20 21 26 26 25 30
Wind_Direction
281 283 281 281 280 275 271 257 253 289 296 289 293 305 308 308 310 307 306 306 304 302 298 296 294 292 289 287 287 287 284 285 284 286 291 303 232 227
284 281 278 278 279 278 271 258 248 249 268 269 280 291 305 303 307 307 311 306 302 297 294 292 290 288 286 285 284 283 281 281 277 277 283 300 290 225
280 277 276 277 277 277 271 262 253 248 256 271 272 283 287 296 304 306 307 310 306 300 297 293 288 286 285 282 280 279 277 277 275 275 279 283 283 310
282 278 277 273 272 278 274 263 253 254 255 271 279 281 280 287 296 299 299 297 291 292 289 288 286 284 282 279 278 276 274 273 274 268 263 270 292 288
283 278 278 277 271 268 263 254 258 261 259 264 275 274 275 279 281 286 287 291 292 287 288 286 284 281 277 277 276 273 272 269 268 274 265 266 274 288
283 283 282 280 273 273 262 256 262 260 258 259 270 276 276 279 270 268 273 273 278 286 284 283 285 284 279 273 270 271 275 272 269 268 266 262 262 276
285 282 286 284 269 267 264 265 257 252 253 256 265 276 275 275 260 264 261 270 272 273 276 282 283 286 276 274 276 281 274 272 272 269 266 262 262 270
276 280 278 280 279 276 275 277 275 271 266 254 257 262 267 261 269 260 260 264 272 273 266 271 277 272 277 280 281 278 278 276 273 274 276 268 260 263
283 286 280 279 279 279 276 277 277 279 280 282 278 271 264 264 267 266 256 252 255 263 266 268 273 272 273 275 277 278 274 273 273 273 273 272 265 261
290 290 289 290 282 285 282 280 281 281 281 277 272 274 276 278 270 263 261 261 262 261 256 265 269 267 271 271 273 273 273 273 272 271 269 269 260 262
294 290 285 287 286 283 284 282 283 284 286 282 279 280 280 280 277 264 242 242 253 256 251 244 263 265 270 271 271 271 270 273 276 269 263 264 259 258
289 283 287 286 279 287 288 287 280 283 290 292 287 284 283 284 281 271 269 239 243 262 252 238 254 257 269 267 272 263 292 290 291 292 286 266 254 257
285 282 282 285 286 285 287 289 292 297 298 294 290 296 290 287 283 272 263 255 254 243 254 242 246 241 243 271 278 284 291 283 283 299 305 285 270 252
292 291 290 287 284 293 296 299 298 295 292 303 297 292 288 291 294 296 274 264 258 259 266 256 255 246 255 263 271 279 274 281 289 288 294 296 285 284
295 294 298 304 302 297 295 294 293 299 299 290 286 285 289 292 300 294 291 283 264 259 261 260 251 251 247 251 261 263 273 277 275 279 277 296 300 304
300 294 293 303 303 299 298 297 293 289 285 285 290 292 296 295 293 294 295 296 271 263 263 260 252 250 249 245 248 258 256 256 269 276 286 290 294 292
317 299 318 323 318 312 306 303 301 294 289 289 289 291 293 294 293 297 296 296 298 281 262 258 254 257 255 254 251 250 252 252 261 276 280 282 284 287
315 307 318 319 311 303 300 301 300 299 295 294 293 292 292 292 296 297 298 293 292 290 293 296 259 246 247 253 250 254 248 258 261 267 272 275 284 289
307 304 304 305 304 298 294 294 295 297 299 296 293 293 293 294 298 295 295 293 292 293 292 297 300 305 273 256 258 238 238 261 271 269 273 267 279 283
310 302 294 297 301 295 296 294 297 299 298 296 294 296 296 291 293 293 291 290 288 287 285 296 296 286 274 279 279 281 260 269 270 272 276 281 278 283
306 303 296 294 296 298 300 301 302 301 300 299 297 295 294 292 290 291 288 293 296 296 290 285 289 297 291 294 280 271 276 265 264 267 277 277 279 286
300 296 301 301 298 296 299 299 303 304 304 297 293 294 294 291 285 287 287 284 283 282 281 285 294 292 288 274 276 279 281 284 281 276 273 270 271 267
298 298 300 300 302 301 299 297 297 296 298 297 293 291 291 288 288 287 283 280 278 278 277 281 283 274 266 269 272 273 271 275 282 287 286 282 277 274
Height
818 818 818 817 818 819 819 819 820 815 809 804 801 797 797 796 794 792 790 788 788 787 787 785 784 781 779 778 777 776 776 773 772 768 765 766 769 772
814 813 813 813 813 813 814 814 814 813 808 802 798 795 791 788 787 783 781 780 779 780 780 779 777 774 773 770 769 767 767 765 765 765 760 759 754 758
811 810 808 809 808 807 807 807 807 806 802 796 794 791 787 783 778 775 774 771 769 770 770 770 769 767 764 762 760 759 757 756 755 753 748 751 748 752
806 805 803 804 802 801 801 800 800 799 796 787 786 784 780 777 774 770 769 769 768 766 766 764 761 759 757 754 751 749 748 748 747 746 748 746 738 735
800 800 798 798 797 796 796 795 793 792 789 784 775 778 773 771 767 766 764 761 761 760 759 757 755 752 749 746 742 740 739 738 737 734 734 734 732 730
794 794 793 792 791 789 788 788 786 784 781 776 767 766 766 765 765 763 759 759 754 753 752 751 748 744 740 736 733 731 729 727 727 726 726 725 725 724
788 786 785 784 783 782 780 777 774 774 771 767 760 755 755 757 756 755 754 752 748 748 744 740 738 735 730 727 724 721 720 718 717 716 714 711 709 707
781 780 779 778 775 774 772 769 768 764 760 758 754 752 747 748 748 747 746 746 740 740 737 731 730 726 724 721 717 715 712 710 708 706 705 701 699 701
775 773 771 770 768 766 764 762 759 757 755 753 748 745 740 741 740 738 737 736 730 727 731 723 723 716 713 710 708 705 703 701 699 697 695 692 689 691
768 767 765 762 761 759 756 752 750 748 747 744 740 736 733 732 730 728 727 725 721 718 721 716 711 705 703 699 696 694 692 690 687 685 682 679 680 678
762 761 759 756 753 751 749 745 742 738 736 734 730 727 724 721 720 717 712 714 708 705 707 708 700 697 695 689 685 681 680 679 675 671 669 668 667 668
756 754 752 749 746 744 742 738 733 730 727 723 720 716 714 712 711 710 705 699 698 693 693 698 692 693 686 679 675 673 673 671 666 662 658 655 655 658
749 746 744 743 740 737 733 730 725 723 719 716 712 709 706 703 700 696 693 691 686 682 681 685 682 682 679 673 669 667 667 662 658 655 650 646 644 644
743 741 738 736 732 729 726 723 720 717 712 709 706 702 699 695 692 688 684 681 678 675 674 676 673 673 671 667 662 660 658 655 653 649 645 642 640 640
738 734 731 729 726 724 721 718 714 710 707 704 701 697 694 690 685 680 676 671 668 666 665 663 663 662 661 657 654 651 651 647 645 643 639 637 634 632
732 728 726 725 722 718 714 711 708 706 703 699 696 692 688 683 679 675 670 666 661 656 652 652 653 653 649 647 646 642 642 641 638 637 634 631 627 625
727 723 721 718 715 712 710 707 704 701 698 695 692 687 683 679 674 670 666 661 656 650 645 644 643 642 640 638 636 634 632 631 631 630 629 624 620 618
722 720 717 715 712 709 707 703 700 697 694 690 687 682 678 674 669 664 661 657 652 646 642 639 635 633 631 628 628 626 625 625 624 622 621 619 613 610
719 717 714 712 709 706 703 700 696 692 689 685 681 677 673 669 665 660 656 652 647 643 639 636 633 631 623 620 618 619 618 617 617 616 615 612 608 603
715 713 710 708 705 702 699 695 692 688 684 680 676 672 668 664 660 655 651 647 642 637 634 632 630 627 623 620 617 613 615 614 613 610 608 605 601 597
711 708 706 703 700 697 693 690 687 683 679 675 671 667 663 659 655 651 647 642 638 634 630 627 624 623 619 616 611 607 605 607 607 605 602 599 595 590
706 703 699 696 693 690 687 684 680 676 672 669 665 661 657 654 650 645 641 637 633 629 624 621 618 616 614 611 606 603 600 598 598 598 597 595 591 583
701 697 693 689 686 684 681 677 674 670 666 663 659 655 651 647 643 639 635 631 627 622 618 615 613 611 608 605 601 597 595 593 591 588 585 585 583 579